Regional Weather Roundup
Issued by NWS

Home | Current Version | Previous Version | Graphics & Text | Print | Product List | Glossary On
Versions: 1 2 3 4 5 6 7 8 9 10 11 12 13 14 15 16 17 18 19 20 21 22 23 24 25 26 27 28 29 30 31 32 33 34 35 36 37 38 39 40 41 42 43 44 45 46 47 48 49 50
000
ASUS45 KTFX 250919
RWRMT
MONTANA HOURLY WEATHER ROUNDUP
NATIONAL WEATHER SERVICE GREAT FALLS MT
319 AM MDT SAT OCT 25 2014

NOTE: "FAIR" INDICATES FEW OR NO CLOUDS BELOW 12000 FEET WITH NO
SIGNIFICANT WEATHER AND/OR OBSTRUCTIONS TO VISIBILITY.

* THESE STATIONS ARE NOT UNDER NWS QUALITY CONTROL. THEY DO NOT
   REPORT WEATHER SUCH AS PRECIPITATION OR FOG.

MTZ001>007-043-251000-
WEST OF THE DIVIDE
CITY           SKY/WX    TMP DP  RH WIND       PRES   REMARKS
KALISPELL      CLOUDY    41  39  93 W3        30.01F
MISSOULA       CLOUDY    45  43  93 SE5       30.02F
BUTTE          MOCLDY    32  30  92 SE6       30.09S WCI  26
MULLAN PASS    FOG       36  36 100 SE9       29.97F VSB M1/4 WCI  29
* ESSEX        N/A       39  38  96 S4         N/A
* LINCOLN      N/A       33  32  96 NW2        N/A
* LOOKOUT PASS N/A       40  40 100 S8G15      N/A   WCI  35
* POLSON       N/A       39  39 100 N/A        N/A
* RONAN APT    CLOUDY    39  37  93 N/A        N/A
* SEELEY LAKE  N/A       34  33  96 N/A        N/A
* THOMP F APT  CLOUDY    45  26  47 NE5        N/A
$$

MTZ008-052>055-251000-
SOUTHWEST MONTANA
CITY           SKY/WX    TMP DP  RH WIND       PRES   REMARKS
BOZEMAN        MOCLDY    30  30 100 CALM      30.08F
DILLON         PTCLDY    36  34  92 S7        30.09S WCI  30
W YELLOWSTONE  CLEAR     27  25  92 CALM      30.20S
* THREE FORKS  CLOUDY    36  19  50 N/A        N/A
* BOULDER HILL N/A       36  34  92 SW11       N/A   WCI  28
* MONIDA PASS  N/A       38  25  60 SE11       N/A   WCI  31
* RAYNOLDS PAS N/A       38  24  57 S11        N/A   WCI  31
* WHITEHALL    N/A       34  33  96 N/A        N/A
* WISE RIVER   N/A       37  36  96 NE2        N/A
$$

MTZ009>010-012-014-046-048-049-054-251000-
EAST SLOPES AND CENTRAL MONTANA
CITY           SKY/WX    TMP DP  RH WIND       PRES   REMARKS
CUT BANK       CLOUDY    43  34  71 CALM      30.06S
GREAT FALLS    MOCLDY    45  39  80 SE7       30.03F
HELENA         CLOUDY    41  37  86 SW5       30.05F
* CONRAD       CLOUDY    45  37  74 N/A        N/A
* DEARBORN     N/A       40  38  93 S2         N/A
* EAST GLACIER N/A       39  35  86 NW4        N/A
* MONARCH      N/A       37  33  85 S4         N/A
* PENDROY      N/A       40  34  79 S3         N/A
* ROGERS PASS  N/A       38  34  86 W6G11      N/A   WCI  33
* SAINT MARY   N/A       38  34  86 SE2        N/A
* SWEET GRASS  N/A       41  32  70 S7G13      N/A
* WHITE SULPH  N/A       41  36  82 E8         N/A
$$

MTZ011-013-016-021-035-040-045-047-050-051-251000-
NORTH CENTRAL MONTANA
CITY           SKY/WX    TMP DP  RH WIND       PRES   REMARKS
HAVRE          CLOUDY    43  36  76 CALM      30.08S
LEWISTOWN      PTCLDY    39  36  89 E8        30.09S WCI  33
* CHINOOK      CLOUDY    39  36  89 CALM      30.09S
* FORT BENTON  MOCLDY    46  36  68 N3        30.06S
* CHESTER      N/A       40  33  76 N2         N/A
* DENTON       N/A       39  38  96 N/A        N/A
* GEYSER       N/A       35  34  96 S6         N/A   WCI  30
* JUDITH GAP   N/A       36  36 100 SW8        N/A   WCI  30
* LOMA         N/A       45  34  65 NE8        N/A
$$

MTZ017>020-022>027-061-062-251000-
NORTHEAST MONTANA
CITY           SKY/WX    TMP DP  RH WIND       PRES   REMARKS
GLASGOW        CLOUDY    45  30  56 S3        30.09S
GLENDIVE       CLOUDY    43  34  71 W5        30.13S
JORDAN         PTCLDY    36  30  79 CALM      30.11S
SIDNEY         CLOUDY    45  34  65 CALM      30.13R
WOLF POINT     CLOUDY    41  34  76 SW6       30.10R
* BEAVER HILL  N/A       47  30  52 N/A        N/A
* CIRCLE       N/A       43  33  68 N/A        N/A
* LINDSAY DVD  N/A       46  32  58 W2         N/A
* NAVAJO       N/A       40  27  60 W12        N/A   WCI  33
* SACO         N/A       41  35  79 NE7        N/A
$$

MTZ028>042-056>058-251000-
SOUTHCENTRAL AND SOUTHEAST MONTANA
CITY           SKY/WX    TMP DP  RH WIND       PRES   REMARKS
BAKER          PTCLDY    36  28  73 CALM      30.14R
BILLINGS       MOCLDY    43  34  71 N3        30.10S
LIVINGSTON     MOCLDY    34  30  85 CALM      30.10F
MILES CITY     PTCLDY    43  34  71 S8        30.12S
* LAUREL APT   MOCLDY    36  27  70 N/A        N/A
* ROUNDUP APT  PTCLDY    39  34  82 N/A        N/A
* ALZADA       N/A       42  30  63 E2         N/A
* HYSHAM       N/A       51  29  43 SE6        N/A
* LAME DEER    N/A       46  30  54 SE7        N/A
* REED POINT   N/A       33  33 100 SW2        N/A
* ROSCOE HILL  N/A       42  33  71 W1         N/A
$$

REGIONAL REPORTS...DAKOTAS
CITY           SKY/WX    TMP DP  RH WIND       PRES   REMARKS
WILLISTON      CLOUDY    43  30  60 SE5       30.09R
DICKINSON      CLOUDY    46  32  58 W6        30.09F
BEACH          N/A       41  32  70 CALM      30.12S
CROSBY         CLEAR     39  28  65 W8        30.08R WCI  33
TIOGA          CLEAR     32  32 100 W3        30.11S
BISMARCK       MOCLDY    46  32  58 NW5       30.10R
GRAND FORKS    PTCLDY    45  34  65 W8        29.98R
FARGO          PTCLDY    43  30  60 W9        30.01R
BUFFALO SD     CLEAR     43  30  60 W3        30.08R
RAPID CITY     CLEAR     45  32  60 NW9       30.16R
$$

REGIONAL REPORTS...WYOMING/IDAHO/WASHINGTON
CITY           SKY/WX    TMP DP  RH WIND       PRES   REMARKS
GILLETTE       PTCLDY    30  28  92 S6        30.14S WCI  24
SHERIDAN       PTCLDY    34  28  79 N6        30.12S WCI  29
CODY           PTCLDY    36  30  79 CALM      30.11S
YELLOWSTONE LA PTCLDY    27  23  85 NW3       30.28S
SALMON         CLOUDY    41  39  93 CALM      30.07F
MULLAN PASS    FOG       36  36 100 SE9       29.97S VSB M1/4 WCI  29
SAND POINT     CLOUDY    46  37  71 NE9       29.94F
SPOKANE        CLOUDY    45  43  93 NE9       29.87F
$$

REGIONAL REPORTS...ALBERTA
CITY           SKY/WX    TMP DP  RH WIND       PRES   REMARKS
CALGARY        MOCLDY    32  18  56 CALM      30.04R
LETHBRIDGE     MOCLDY    39  30  70 CALM      30.05R
MEDICINE HAT   MOCLDY    36  28  73 VRB2      30.05S
EDMONTON       FAIR      21  14  74 SW6       30.03R WCI  13
WATERTON GATE  N/A       37  32  82 CALM       N/A
CARDSTON       N/A       39  34  82 S1         N/A
MILK RIVER     N/A       37  34  89 E3         N/A
$$

REGIONAL REPORTS...SASKATCHEWAN
CITY           SKY/WX    TMP DP  RH WIND       PRES   REMARKS
SWIFT CURRENT  MOCLDY    34  27  76 SW9       30.06R WCI  27
REGINA         N/A       30  27  89 W5        30.06R WCI  25
VAL MARIE      N/A       36  30  79 SW3        N/A
ASSINIBOIA     N/A       34  30  85 SW5        N/A   WCI  29
CORONACH       N/A       34  27  76 SW2        N/A

$$




USA.gov is the U.S. government's official web portal to all federal, state and local government web resources and services.